Location: Erfurt
(50.9688°N, 11.0193°E)
Time: 03:55:18
(UTC+01:00)

N. Korean satellite - Visible Passes

Search period start: 23 February 2018 00:00
Search period end: 05 March 2018 00:00
Orbit: 459 x 514 km, 97.2° (Epoch: 22 February)

Date Brightness Start Highest point End Pass type
(mag) Time Alt. Az. Time Alt. Az. Time Alt. Az.
23 Feb 10.3 19:21:19 10° WSW 19:22:34 12° W 19:23:51 10° WNW visible
24 Feb 9.6 18:55:55 10° SW 18:58:35 20° W 19:01:18 10° NW visible
25 Feb 9.5 06:17:13 10° NE 06:20:16 24° E 06:23:20 10° SSE visible
25 Feb 8.4 18:31:26 10° SSW 18:34:41 36° W 18:37:59 10° NNW visible
26 Feb 10.3 05:54:17 10° NE 05:56:19 14° E 05:58:22 10° ESE visible
27 Feb 10.3 19:19:35 10° WSW 19:21:01 12° W 19:22:29 10° WNW visible
28 Feb 9.6 18:54:17 10° SW 18:57:02 21° W 18:59:49 10° NW visible
01 Mar 9.6 06:15:41 10° NE 06:18:44 23° E 06:21:48 10° SSE visible
01 Mar 8.3 18:29:49 10° SSW 18:33:07 38° W 18:36:29 10° NNW visible
02 Mar 10.3 05:52:46 10° ENE 05:54:46 14° E 05:56:47 10° ESE visible
03 Mar 10.2 19:17:48 10° WSW 19:19:26 13° W 19:21:05 10° WNW visible
04 Mar 9.5 18:52:36 10° SW 18:55:25 22° W 18:58:19 10° NW visible
